Strona główna
METAR-TAF:

METAR-TAF

Lotnisko :

Port lotniczy Tartu

Tartu, Estonia

Szerokość geograficzna: 58-18N, Długość geograficzna: 026-44E, wysokość: 59 m

Aktualna obserwacja pogody

Raport powstał 17 minut temu, godzina 07:50 UTC
Wiatr 13 kt od południowo-południowy zachód
Temperatura 14°C
Wilgotność 33%
Ciśnienie 1024 hPa
Widzialność 10 km lub więcej

METAR: EETU 070750Z AUTO 20013KT 9999 NCD 14/M02 Q1024

czas: 11:07 (08:07 UTC)


TAF: brakujący

Obserwacja i prognoza pogody dla ponad 4000 lotnisk (raport METAR i TAF).

Dostępne stacje oznaczono żółtymi i czerwonymi punktami na mapie.

Najedź kursorem aby zobaczyć nazwę stacji.

Kliknij aby zobaczyć obserwacje i prognozy pogody.

Aby zmienić mapę: kliknij na zielony przycisk z czarnym krzyżykiem, aby powiększyć; na zielony przycisk z myślnikiem, aby pomniejszyć; na zielone strzałki, aby przejść do map sąsiednich.


METAR-TAF: